Hourly Data Report for October 05, 2016

All times are specified in Local Standard Time (LST). Add 1 hour to adjust for Daylight Saving Time where and when it is observed.

GRISE FIORD CLIMATE
NUNAVUT

76°25'22.040" N
82°54'08.020" W
44.50 m
2402351
71971
NGC

Download Data

Hourly Data (October 2016)
Hourly Data Report for October 5, 2016
Temp Definition
°C
Dew Point Temp Definition
°C
Rel Hum Definition
%
Wind Dir Definition
10's deg

Wind Spd Definition
km/h
Visibility Definition
km
Stn Press Definition
kPa
Hmdx Definition


Wind Chill Definition


Weather Definition


TIME
00:00 -7.6 -9.6 85 24 14   100.43   -14 LegendNANA
01:00 -7.9 -10.0 85 33 8   100.46   -12 LegendNANA
02:00 -7.8 -10.1 84 1 9   100.48   -12 LegendNANA
03:00 -8.1 -10.4 84 5 11   100.52   -13 LegendNANA
04:00 -6.9 -10.0 79 6 9   100.55   -11 LegendNANA
05:00 -6.8 -10.2 77 24 5   100.58   -9 LegendNANA
06:00 -6.6 -9.5 80 33 4   100.64   -9 LegendNANA
07:00 -7.0 -9.2 84 5 3   100.66   -9 LegendNANA
08:00 -6.9 -9.1 84 3 3   100.70   -8 LegendNANA
09:00 -6.8 -9.2 83 0 1   100.73   -7 LegendNANA
10:00 -6.3 -9.4 78 32 3   100.74   -8 LegendNANA
11:00 -6.4 -9.7 77 11 4   100.75   -8 LegendNANA
12:00 -6.3 -9.0 81 12 3   100.78   -8 LegendNANA
13:00 -5.4 -9.4 73 8 6   100.78   -8 LegendNANA
14:00 -5.2 -9.3 73 31 3   100.79   -7 LegendNANA
15:00 -5.2 -8.2 79 28 10   100.82   -10 LegendNANA
16:00 -5.3 -8.0 81 15 1   100.82   -6 LegendNANA
17:00 -5.1 -7.8 81   0   100.82     LegendNANA
18:00 -5.3 -7.3 86 4 4   100.82   -7 LegendNANA
19:00 -5.0 -7.5 83 18 3   100.81   -6 LegendNANA
20:00 -5.2 -7.3 85 13 7   100.81   -8 LegendNANA
21:00 -6.0 -8.1 86 7 4   100.78   -8 LegendNANA
22:00 -4.8 -6.8 86 12 4   100.73   -7 LegendNANA
23:00 -5.0 -7.0 86   0   100.71     LegendNANA

Notes on Data Quality.

Legend

  • E = Estimated
  • M = Missing
  • NA = Not Available
  • ‡ = Partner data that is not subject to review by the National Climate Archives
Date modified: